EA5JUX Weather Reports


time (UTC)temp
C
wind
direction
speed
KPH
gust
KPH
rain 1hr
cm
rain 24hr
cm
rain mn
cm
humidity
%
barometer
mb
20260507153738 16 45 4.8 12.9 0.03 0.81 0.81 88 1009.3
20260507140236 16 315 3.2 12.9 0.03 0.20 0.20 85 1009.7
20260507133236 17 23 11.3 20.9 0.00 0.18 0.18 81 1009.6
20260507131225 17 23 6.4 17.7 0.00 0.18 0.18 79 1009.9
20260507123238 16 338 8.0 11.3 0.18 0.18 0.18 88 1010.0
20260507122229 16 338 6.4 12.9 0.18 0.18 0.18 88 1010.2
20260507113736 17 23 6.4 27.4 0.00 0.00 0.00 76 1010.4
20260507113229 17 23 9.7 27.4 0.00 0.00 0.00 76 1010.5
20260507110732 18 315 11.3 17.7 0.00 0.00 0.00 75 1010.4
20260507104724 20 90 4.8 17.7 0.00 0.00 0.00 75 1010.5
20260507104226 20 90 12.9 17.7 0.00 0.00 0.00 76 1010.5
20260507103234 19 90 4.8 17.7 0.00 0.00 0.00 80 1010.7
20260507095737 19 113 8.0 22.5 0.00 0.00 0.00 78 1010.4
20260507083726 19 90 6.4 17.7 0.00 0.00 0.00 79 1010.6
20260507081732 19 90 12.9 17.7 0.00 0.00 0.00 79 1010.3
20260507080733 19 90 9.7 17.7 0.00 0.00 0.00 78 1010.6
20260507073730 18 90 8.0 17.7 0.00 0.00 0.00 79 1010.4
20260507070725 18 90 8.0 17.7 0.00 0.00 0.00 79 1010.3
20260507064726 18 68 12.9 17.7 0.00 0.00 0.00 80 1009.9
20260507051232 18 90 6.4 14.5 0.00 0.00 0.00 81 1009.6
20260507041734 18 90 8.0 17.7 0.00 0.00 0.00 80 1009.1
20260507031724 18 68 12.9 14.5 0.00 0.00 0.00 80 1009.2
20260507030232 17 45 6.4 14.5 0.00 0.00 0.00 80 1009.4
20260507022227 18 90 8.0 12.9 0.00 0.00 0.00 80 1009.4
20260507020230 17 68 11.3 17.7 0.00 0.00 0.00 79 1009.7
20260507015736 18 68 6.4 17.7 0.00 0.00 0.00 80 1009.8
20260507012233 18 68 6.4 12.9 0.00 0.00 0.00 79 1010.3
20260507002733 18 68 8.0 14.5 0.00 0.00 0.00 80 1010.1
20260507001733 17 68 6.4 11.3 0.00 0.00 0.00 81 1010.2
20260507000226 17 45 6.4 6.4 0.00 0.00 0.00 81 1010.0
20260506221227 16 135 0.0 3.2 0.00 0.00 0.00 80 1010.6
20260506213228 17 113 0.0 3.2 0.00 0.00 0.00 80 1010.9
20260506212226 17 203 0.0 3.2 0.00 0.00 0.00 79 1011.0
20260506210229 17 135 0.0 3.2 0.00 0.00 0.00 79 1010.9
20260506205234 17 113 1.6 6.4 0.00 0.00 0.00 78 1010.8
20260506202236 17 135 0.0 6.4 0.00 0.00 0.00 78 1010.9
20260506194736 17 90 0.0 6.4 0.00 0.00 0.00 78 1010.2
20260506192725 17 113 3.2 11.3 0.00 0.00 0.00 77 1010.0
20260506190225 17 113 3.2 11.3 0.00 0.00 0.00 77 1009.8
20260506182229 18 90 6.4 17.7 0.00 0.00 0.00 75 1009.3
20260506181226 18 135 6.4 17.7 0.00 0.00 0.00 75 1009.3
20260506180735 18 135 6.4 17.7 0.00 0.00 0.00 75 1009.4
20260506174739 18 113 4.8 14.5 0.00 0.00 0.00 75 1009.3
20260506172229 18 113 6.4 17.7 0.00 0.00 0.00 75 1009.4
20260506170225 18 90 9.7 22.5 0.00 0.00 0.00 75 1009.3
20260506162725 19 68 11.3 22.5 0.00 0.00 0.00 73 1009.5
20260506161232 19 90 12.9 22.5 0.00 0.00 0.00 73 1009.5